FENGYUN 1C DEB, 30145

Orbit data source: Space-Track

FENGYUN 1C DEB, 30145 is space debris in SSO originally from a launch on Mon, 10 May 1999 UTC launched from the Taiyaun Space Center, China (TSC). Fengyun 1C debris stems from the Chinese weather satellite Fengyun-1C, which was intentionally destroyed by a Chinese anti-satellite missile in 2007. This event dramatically increased the amount of space debris, with thousands of trackable fragments posing hazards to satellites and human spaceflight. The Fengyun 1C debris cloud has become a focal point in discussions about space sustainability and the need for international regulations to prevent the creation of new debris.

Loading next visibility...
Identifier
30145, 1999-025TA
Orbit
SSO
Country
Flag of CNCN / PRC
Related business
Manufacturer
Unknown
Mission
Spacecraft
Bus & Motor
Unknown
Mass
Unknown
Launch date (UTC)
1999-05-10 (27 years ago)
Launch vehicle
Unknown
Launch site
Taiyaun Space Center, China (TSC)
Object type
Payload
Rocket body
Debris
Shape & HBR
Unknown shape, 0.1 m
Radar Cross Section
Medium (>0.1 m² and <1 m²)

Expand to show TLE details & history
Last TLE update: 1 day ago

TLE from 1 day ago
0 FENGYUN 1C DEB
1 30145U 99025TA  26253.15456398  .00003108  00000-0  15217-2 0  9997
2 30145  99.2754  18.4799 0088803 105.9529  18.6491 14.16598838   346
Epoch: 2026-09-10T03:42Z
TLE epoch observation values (Epoch: 2026-09-10T03:42:34.327Z)
Latitude
54.11246°
Longitude
166.61468°
Altitude
785.068 km
Speed
7.498 km/s
True Right ascension
14h 05m 48s
True Declination
53° 56' 59"
Sunlit
Object was in daylight at epoch
Visualization orbit readout
Latitude
Unknown
Longitude
Unknown
Altitude
Unknown
Speed
Unknown
Apparent Right ascension
Unknown
Apparent Declination
Unknown
Sunlit
N/A
Visualization observer readout
Local Sidereal Time
05:39:10
Azimuth
Unknown
Elevation
Unknown
Doppler factor
Unknown
Orbital elements
Apogee altitude
898.116 km
Perigee altitude
770.022 km
Semi-major axis
7,212.206 km
Eccentricity
0.00888
Inclination
99.2754°
RAAN
18.4799°
Arg. of periapsis
105.9529°
True anomaly
18.97796°
Mean anomaly
18.6491°
Eccentric anomaly
18.81318°
Mean motion
3.54357 °/min
Orbital period
101.59 mins
BSTAR
0.0015217
Loading maneuver chart data...
Computing Atmospheric mass density...
Loading historical data...
Loading historical data...
Loading historical data...
Loading historical data...
Loading historical data...
Loading historical data...
Loading historical data...

Documentation

Showing up to 5 results
|